This is the latest recevied weather packets stored in our database for station/object OM8AKX-4. If no packets are shown the sender has not sent any weather packets the latest 10 day(s).
| Time | Temp. | Humidity | Pressure | Rain* | Wind** | Luminosity | Snow |
|---|---|---|---|---|---|---|---|
| 1777498777 | -5.56° C | 76% | 882.1 hPa | - | - | - | - |
| 1777497877 | -5.56° C | 73% | 881.9 hPa | - | - | - | - |
| 1777496976 | -5.56° C | 71% | 881.8 hPa | - | - | - | - |
| 1777496076 | -5° C | 69% | 881.8 hPa | - | - | - | - |
| 1777495176 | -5° C | 66% | 881.6 hPa | - | - | - | - |
| 1777494276 | -4.44° C | 63% | 882 hPa | - | - | - | - |
| 1777493376 | -4.44° C | 59% | 881.5 hPa | - | - | - | - |
| 1777492475 | -3.89° C | 56% | 881.5 hPa | - | - | - | - |
| 1777491576 | -3.89° C | 55% | 881.7 hPa | - | - | - | - |
| 1777490675 | -3.89° C | 54% | 881.2 hPa | - | - | - | - |
| 1777489777 | -3.89° C | 53% | 880.8 hPa | - | - | - | - |
| 1777488877 | -3.33° C | 52% | 881 hPa | - | - | - | - |
| 1777487977 | -3.33° C | 50% | 881 hPa | - | - | - | - |
| 1777487077 | -2.78° C | 49% | 880.5 hPa | - | - | - | - |
| 1777486178 | -2.78° C | 48% | 880.2 hPa | - | - | - | - |
| 1777485277 | -2.78° C | 47% | 880.2 hPa | - | - | - | - |
| 1777484377 | -2.22° C | 47% | 880 hPa | - | - | - | - |
| 1777483476 | -2.22° C | 47% | 880.3 hPa | - | - | - | - |
| 1777482576 | -1.67° C | 47% | 880.2 hPa | - | - | - | - |
| 1777481676 | -1.67° C | 46% | 879.8 hPa | - | - | - | - |
| 1777480776 | -1.67° C | 49% | 879.8 hPa | - | - | - | - |
| 1777479876 | -1.11° C | 49% | 880.1 hPa | - | - | - | - |
| 1777478976 | -1.11° C | 47% | 879.5 hPa | - | - | - | - |
| 1777478076 | -1.11° C | 49% | 879.9 hPa | - | - | - | - |
| 1777477176 | -1.11° C | 49% | 879.6 hPa | - | - | - | - |
* Rain since midnight (hover to see other rain measurements)
** Current wind speed in m/s (hover to see current wind gust speed)